Temperature
30 30 30 31 32 33 33 32 32 33 34 33 33 32 33 33 32 30 29 28 26 25 24 22 21 20 20 19 19 19 18 18 18 18 18 18 18 18 18 18 18 18 18 18
30 30 31 33 33 33 32 32 32 33 34 33 32 32 33 33 32 31 30 28 27 25 24 22 21 20 20 19 19 18 18 18 18 18 18 18 18 18 18 19 18 18 18 18
30 32 33 32 32 32 32 32 32 32 33 33 32 31 32 32 32 31 30 29 28 26 24 22 21 20 20 19 19 18 18 18 18 18 18 18 18 18 18 18 18 18 18 18
31 32 32 32 32 32 31 33 33 32 32 31 32 30 31 31 30 31 30 29 28 26 24 22 21 20 20 19 19 19 18 18 18 18 18 18 18 18 18 18 18 18 18 18
31 32 32 31 32 32 32 33 33 32 31 31 31 31 31 31 30 30 30 29 28 26 24 23 22 21 20 20 19 19 18 18 18 18 18 18 18 18 18 18 18 18 18 18
32 33 33 32 33 33 33 32 32 31 31 29 31 31 30 31 31 31 31 29 28 26 25 23 22 21 20 20 19 19 18 18 18 18 18 18 18 18 18 18 18 18 18 18
30 32 33 33 32 32 32 30 29 29 29 29 31 31 31 32 32 32 31 29 28 27 25 23 22 21 20 20 19 18 18 18 18 18 18 18 18 18 18 18 18 18 18 18
29 30 32 33 32 31 31 31 29 28 28 28 29 30 31 32 32 32 31 29 28 27 25 24 22 21 20 20 19 18 18 18 18 18 18 18 18 18 18 18 18 18 18 18
31 31 33 33 33 32 31 31 32 30 29 29 29 30 31 31 31 31 31 29 28 27 25 24 22 21 20 20 19 19 18 18 18 18 18 18 18 18 18 18 18 18 18 18
31 30 32 33 33 32 32 32 31 30 28 28 29 29 29 29 29 30 30 29 28 26 25 24 23 21 20 20 19 19 18 18 18 18 18 18 18 18 18 18 18 18 18 18
31 30 31 32 31 31 31 31 30 30 30 29 28 28 30 29 29 29 30 29 28 27 26 24 23 22 21 20 19 19 18 18 18 18 18 18 18 18 18 17 17 17 17 17
31 31 30 31 33 33 32 31 31 29 29 29 29 29 31 30 30 30 30 29 28 27 26 24 23 22 21 20 20 19 18 18 18 18 18 17 18 18 17 17 17 17 17 17
31 30 28 29 31 32 31 32 31 31 30 29 29 29 31 31 31 30 30 29 27 26 25 24 23 22 21 21 20 19 18 18 18 18 17 17 17 17 17 17 17 17 17 17
30 29 29 29 30 31 31 31 31 31 30 29 30 29 30 29 29 29 29 28 27 25 25 24 23 22 21 20 20 19 18 18 18 18 17 17 17 17 17 17 17 17 17 16
30 28 29 30 31 31 31 31 31 31 30 30 30 30 29 29 28 28 28 27 26 25 24 23 22 21 21 20 19 19 18 18 18 17 17 17 17 17 17 16 16 16 16 16
29 28 28 28 30 31 31 31 31 31 31 31 31 30 30 29 28 28 28 27 26 25 24 23 22 21 20 19 19 19 18 18 18 17 17 17 17 17 16 16 16 16 16 16
28 26 26 27 29 29 29 31 31 31 31 31 30 30 30 28 28 27 27 26 25 25 24 22 21 20 20 19 18 18 18 18 17 17 17 17 16 16 16 16 16 15 15 15
27 26 26 26 27 26 29 32 32 31 31 31 31 30 29 28 26 26 26 26 25 24 23 22 21 20 19 19 18 18 18 17 17 17 16 16 16 16 16 15 15 15 15 15
27 26 26 26 26 27 29 31 31 30 30 31 30 29 28 26 26 25 25 24 23 23 22 21 20 20 19 18 18 18 17 17 17 16 16 16 16 15 15 15 15 15 15 14
27 26 25 25 25 26 28 30 31 30 28 29 29 28 27 26 26 24 23 22 22 21 21 20 20 19 18 18 17 17 17 17 16 16 16 16 15 15 15 15 15 14 14 14
25 25 24 24 25 26 28 29 29 27 26 27 27 27 26 25 24 22 21 21 20 20 20 19 19 18 18 17 17 17 16 16 16 16 15 15 15 15 14 14 14 14 14 13
24 24 24 24 24 25 27 28 26 24 25 25 24 24 23 22 21 21 20 19 19 19 19 18 18 17 17 17 17 16 16 16 16 15 15 15 15 14 14 14 13 13 13 13
25 24 25 24 24 24 24 24 24 24 24 24 23 22 22 21 20 20 19 19 18 18 18 17 17 16 16 16 16 16 15 15 15 15 15 14 14 13 13 13 13 13 12 12
24 24 24 23 23 23 23 23 23 23 22 22 22 22 21 21 20 19 18 18 18 17 17 16 16 15 15 15 15 15 15 15 14 14 14 13 13 13 12 12 12 12 12 12
22 22 22 22 22 22 21 21 21 21 21 21 21 21 20 20 19 18 17 17 16 16 15 15 15 15 14 14 14 14 14 14 14 13 13 13 12 12 12 12 12 11 11 11
22 21 21 20 21 21 20 20 20 20 20 20 20 20 19 19 18 17 16 16 15 15 14 14 14 13 13 13 13 13 13 13 13 13 12 12 12 11 11 11 11 10 10 10
Wind_Speed
12 12 14 14 14 14 15 14 12 8 5 5 8 9 6 3 4 6 8 10 11 11 12 12 13 12 12 12 11 11 11 10 9 7 7 6 5 4 4 5 8 9 8 9
14 17 17 15 12 11 13 13 13 10 7 6 9 12 7 5 5 6 9 11 11 12 13 13 12 12 12 12 11 11 10 11 10 8 6 5 5 4 4 4 6 9 8 8
19 14 9 12 14 14 13 12 12 12 10 9 11 12 8 5 5 7 8 9 10 12 14 14 13 12 12 12 12 11 10 10 10 9 6 5 4 3 3 4 5 6 8 8
17 18 13 11 13 14 13 12 13 12 12 11 11 9 5 6 7 8 9 10 10 10 12 13 12 11 12 12 11 10 10 10 10 9 9 10 8 7 7 5 5 5 6 7
15 15 16 15 14 13 13 12 12 12 12 14 14 11 4 6 7 8 9 10 11 12 13 13 12 12 11 11 11 10 10 10 10 10 10 10 8 7 6 5 6 6 5 6
19 15 13 15 14 13 12 12 12 12 12 14 14 11 6 4 5 7 9 10 11 12 13 12 11 11 9 10 10 10 10 10 10 10 9 9 9 7 7 7 7 7 6 6
20 19 17 13 14 14 12 11 9 10 10 10 9 9 4 5 5 6 9 10 10 11 12 12 11 11 10 10 9 10 11 10 10 10 9 9 7 7 8 7 7 7 6 6
18 16 19 17 15 13 13 14 12 9 7 6 6 7 2 5 6 7 8 10 11 11 11 11 11 10 9 9 9 10 10 10 10 10 9 8 7 6 6 7 7 7 5 5
13 15 16 16 15 16 16 15 16 16 15 12 7 6 6 6 6 7 10 10 10 10 10 11 11 10 9 9 9 9 9 9 10 9 8 8 8 7 6 7 6 5 5 6
20 14 9 13 12 15 17 14 10 11 11 12 9 7 2 6 6 5 8 10 11 10 11 12 12 11 10 9 9 9 9 8 8 8 8 8 7 6 6 6 7 7 6 6
20 16 14 12 14 14 14 15 12 10 10 10 9 3 2 8 8 8 8 11 11 12 12 12 11 11 10 9 9 9 9 8 7 7 7 6 6 6 5 5 5 5 5 6
16 13 14 14 14 14 15 15 14 10 10 11 10 5 6 7 8 9 9 11 11 11 12 12 11 11 9 9 9 8 8 8 7 7 7 6 6 5 5 5 4 4 5 6
9 11 13 14 13 15 15 15 15 13 11 12 11 3 5 4 5 7 9 11 11 10 11 11 11 9 9 8 8 8 7 7 7 7 7 6 6 5 4 4 4 4 5 5
5 11 14 16 11 10 14 16 16 15 13 13 12 7 5 5 4 5 9 10 11 10 10 10 9 8 7 7 7 6 7 7 6 6 6 6 5 5 4 4 4 5 5 5
8 13 16 18 18 14 13 15 16 17 15 14 11 9 5 6 7 8 9 10 12 12 11 10 9 8 7 7 6 6 5 5 5 5 5 5 5 4 4 4 5 5 5 6
11 12 15 18 20 19 17 15 15 16 15 15 14 10 4 6 7 8 10 12 12 12 11 10 10 9 8 7 6 6 5 5 5 5 5 5 5 5 5 5 5 5 5 5
13 12 14 16 17 19 20 16 15 14 14 14 13 7 5 6 7 6 7 10 11 11 11 10 9 8 7 7 6 5 5 5 5 5 5 6 6 5 5 6 6 6 6 7
10 10 11 15 17 19 14 13 14 14 13 10 5 3 3 8 9 5 5 8 11 11 10 9 8 9 8 7 7 5 5 5 5 5 6 6 6 6 6 6 6 6 6 7
10 8 10 13 17 18 16 12 11 11 10 7 5 2 5 10 9 5 5 8 9 10 9 8 7 8 7 7 6 6 5 5 5 5 6 6 6 6 6 6 6 6 7 7
14 10 11 13 15 15 9 7 8 8 8 3 3 3 7 7 6 5 7 8 10 9 8 8 7 7 6 5 6 6 5 5 5 5 6 6 6 7 7 7 7 7 8 8
17 16 16 17 17 13 8 4 3 7 2 6 6 5 6 4 5 10 11 10 10 8 8 7 7 6 5 4 5 5 5 4 4 5 6 7 7 6 7 7 7 8 8 9
16 16 16 16 18 13 6 3 1 4 7 9 10 11 12 12 12 12 10 9 8 8 7 7 6 6 5 4 4 5 4 4 5 6 7 7 7 6 7 8 8 9 9 10
9 7 7 8 6 4 7 7 6 6 6 6 8 9 10 10 10 10 9 7 6 7 6 5 5 5 5 4 4 5 4 5 6 7 7 8 8 7 7 8 9 8 8 8
5 2 4 2 4 5 6 6 6 6 7 7 7 7 7 7 8 8 7 6 6 6 5 4 5 5 5 4 4 4 4 5 7 8 8 8 9 9 8 6 6 7 7 8
3 3 5 4 4 4 3 4 5 5 6 6 6 6 6 6 7 7 5 5 5 5 4 5 5 5 4 4 4 4 5 6 7 8 8 9 9 9 9 9 8 7 5 5
4 2 3 1 2 2 4 5 5 4 5 6 5 6 6 6 6 5 5 5 5 5 5 5 5 4 4 4 4 3 4 5 7 8 8 8 8 8 10 11 11 18 14 16
Wind_Direction
221 235 243 244 240 259 287 302 302 300 300 291 286 285 267 224 191 153 159 159 165 169 163 156 158 165 165 167 172 175 179 173 169 171 174 183 194 192 183 168 159 167 180 164
233 234 244 259 267 269 274 280 283 284 281 278 282 280 262 222 195 169 167 164 171 161 153 156 163 168 171 174 177 178 181 176 175 170 173 183 180 191 192 173 158 172 176 168
233 245 236 243 257 261 263 267 278 292 298 278 270 268 247 213 195 175 166 163 167 161 158 161 169 173 174 178 181 184 183 180 180 171 171 178 178 193 191 176 165 172 175 183
239 249 256 251 251 254 259 261 272 282 284 283 280 278 235 187 197 184 166 161 156 149 155 161 168 176 178 179 179 182 180 177 178 176 180 181 187 192 191 184 166 173 180 183
238 236 243 249 252 254 264 277 278 279 278 278 274 274 260 175 180 178 166 162 153 154 158 161 167 173 178 176 176 179 178 178 178 183 185 189 192 192 186 179 164 174 183 191
252 249 238 244 249 251 259 269 271 267 267 262 261 263 255 188 172 170 158 150 150 152 154 156 161 163 168 169 172 172 174 178 178 186 188 197 197 190 182 178 178 185 183 196
244 247 245 242 247 238 237 246 255 247 243 260 262 251 232 156 147 144 145 147 151 151 151 152 157 163 167 169 168 169 172 178 180 186 190 198 198 191 188 187 192 198 189 191
230 234 230 229 233 244 229 235 246 267 273 295 284 258 188 131 121 128 141 145 152 156 151 154 156 159 164 167 168 168 171 174 178 184 187 191 192 196 196 199 197 204 202 190
244 234 217 212 220 234 241 235 249 266 276 277 248 226 156 144 136 138 142 144 152 152 149 152 150 156 163 165 162 163 165 169 176 182 182 186 193 201 201 195 200 199 193 185
257 277 237 200 211 223 242 251 247 255 274 280 276 278 213 147 142 153 155 147 146 150 153 151 151 157 161 158 157 158 162 169 177 180 181 186 191 195 200 199 201 196 193 190
237 256 260 213 204 224 219 240 254 269 268 272 278 289 118 156 167 179 177 152 154 158 155 148 146 147 152 154 157 159 159 166 173 176 180 180 182 188 194 200 200 191 182 179
219 239 252 244 213 222 231 229 233 243 261 272 276 260 158 168 169 172 170 145 145 147 143 143 144 148 155 156 156 157 162 168 172 171 167 174 177 175 184 189 190 181 177 176
221 232 242 246 230 215 228 227 232 235 249 262 269 251 148 153 156 154 142 137 137 139 140 141 143 149 153 152 153 157 163 165 168 166 166 169 173 175 182 182 181 174 167 165
262 236 240 244 240 226 227 231 232 236 240 247 256 244 184 181 159 135 134 138 140 141 140 142 143 141 140 140 143 152 160 161 163 160 164 163 167 166 167 167 166 162 160 158
252 241 244 258 268 262 248 237 235 235 243 255 259 265 220 181 154 155 155 152 147 150 149 149 148 139 138 138 143 145 148 148 150 151 156 150 145 142 142 139 143 144 149 153
229 252 252 254 259 262 256 243 239 240 241 249 257 261 214 160 150 160 162 159 155 156 153 151 146 144 145 146 150 145 144 145 143 147 147 141 138 137 139 140 138 134 132 128
220 225 248 256 255 255 251 247 246 248 245 246 254 239 184 162 139 152 166 160 152 153 149 146 146 148 147 148 146 144 143 144 146 148 149 145 138 135 134 135 128 125 124 119
238 228 230 247 256 255 256 257 252 252 257 255 237 194 145 124 115 131 160 150 144 144 142 141 145 145 144 146 144 140 142 148 152 151 149 148 143 138 132 127 126 125 123 119
234 236 240 243 245 247 252 258 255 250 249 256 256 151 125 122 125 123 101 118 124 128 129 132 135 134 134 138 139 142 146 150 154 152 145 145 143 139 134 130 130 129 127 124
226 225 236 244 250 251 250 268 268 254 239 295 276 164 148 159 184 141 117 110 110 111 115 121 121 117 117 121 135 142 146 145 146 143 138 132 133 135 133 129 123 119 122 121
213 215 225 238 247 253 276 292 266 244 262 28 39 75 124 93 91 113 109 101 105 106 109 110 112 112 110 114 126 134 132 139 138 132 132 128 128 129 127 121 117 118 117 115
211 214 219 231 242 245 330 272 222 73 56 54 67 80 89 95 101 105 104 108 117 120 113 111 108 105 98 102 120 130 131 128 123 124 124 122 120 123 126 123 120 119 119 118
220 226 229 223 233 83 57 66 67 83 80 72 86 94 104 109 117 116 116 123 123 114 111 107 107 101 92 88 107 125 125 128 126 124 124 121 118 112 115 121 125 124 123 123
224 241 242 202 134 102 85 81 66 72 79 79 89 100 105 114 119 121 129 125 116 109 108 104 103 99 91 82 93 106 124 123 121 123 123 121 118 112 105 105 111 116 125 130
311 296 252 217 158 117 88 79 81 89 101 99 94 97 99 106 114 118 122 116 110 101 92 94 95 92 87 83 87 99 118 122 124 122 123 120 118 117 102 85 70 88 84 119
258 253 263 264 55 89 121 131 116 106 106 104 94 88 83 93 109 110 105 100 101 99 93 91 94 99 96 93 89 94 115 127 130 128 127 127 125 119 114 104 83 60 68 73
Height
1485 1486 1483 1475 1469 1469 1468 1469 1469 1462 1455 1461 1465 1465 1462 1463 1466 1471 1477 1481 1485 1490 1494 1497 1499 1502 1505 1508 1510 1513 1516 1519 1522 1526 1529 1533 1537 1540 1544 1547 1549 1551 1554 1556
1482 1481 1472 1467 1464 1466 1469 1473 1470 1461 1455 1461 1465 1464 1459 1461 1464 1468 1473 1478 1483 1488 1492 1495 1498 1501 1504 1506 1509 1511 1514 1517 1520 1524 1527 1532 1536 1539 1542 1545 1547 1550 1552 1555
1479 1468 1463 1466 1469 1470 1471 1472 1469 1467 1460 1458 1464 1467 1460 1459 1462 1466 1470 1475 1480 1485 1490 1494 1497 1500 1502 1504 1506 1509 1511 1515 1518 1522 1525 1529 1533 1536 1540 1543 1545 1548 1550 1553
1469 1464 1464 1466 1468 1468 1473 1463 1463 1465 1470 1471 1466 1479 1465 1458 1463 1464 1468 1473 1478 1483 1488 1492 1496 1498 1500 1503 1505 1508 1510 1512 1516 1519 1522 1526 1529 1532 1536 1540 1542 1545 1548 1551
1465 1461 1463 1467 1465 1463 1465 1459 1461 1464 1469 1474 1467 1474 1467 1457 1464 1463 1465 1470 1475 1481 1486 1490 1494 1496 1499 1502 1503 1505 1507 1510 1513 1516 1520 1524 1527 1531 1534 1537 1540 1543 1545 1548
1458 1455 1456 1458 1458 1459 1460 1463 1464 1465 1470 1484 1471 1473 1473 1459 1460 1460 1462 1468 1474 1479 1484 1489 1492 1495 1498 1500 1502 1503 1505 1508 1511 1514 1518 1521 1525 1528 1532 1534 1537 1540 1543 1545
1463 1456 1452 1454 1459 1458 1461 1474 1487 1488 1487 1484 1463 1468 1465 1452 1451 1455 1460 1466 1472 1478 1482 1487 1491 1493 1496 1498 1500 1502 1503 1506 1509 1512 1515 1519 1523 1526 1529 1532 1534 1537 1540 1542
1467 1465 1451 1450 1457 1461 1461 1468 1488 1496 1495 1487 1472 1471 1458 1447 1450 1455 1460 1465 1472 1477 1481 1485 1489 1492 1495 1497 1499 1500 1502 1504 1507 1510 1513 1517 1520 1523 1526 1529 1531 1534 1537 1539
1453 1453 1439 1442 1447 1454 1461 1462 1458 1470 1474 1481 1473 1461 1453 1450 1452 1455 1459 1465 1470 1475 1479 1484 1488 1492 1494 1497 1498 1499 1501 1503 1506 1509 1512 1515 1518 1521 1523 1526 1529 1531 1534 1536
1447 1453 1439 1438 1445 1448 1452 1453 1459 1470 1485 1489 1477 1469 1466 1459 1457 1457 1459 1464 1470 1475 1479 1484 1487 1490 1493 1496 1498 1499 1500 1502 1505 1508 1510 1513 1515 1518 1521 1523 1526 1528 1531 1533
1443 1453 1446 1440 1449 1452 1454 1458 1459 1462 1464 1480 1488 1480 1453 1456 1456 1458 1459 1463 1468 1473 1477 1482 1487 1490 1493 1495 1498 1499 1501 1503 1505 1507 1509 1511 1514 1516 1518 1520 1522 1525 1527 1530
1439 1446 1453 1443 1435 1439 1443 1450 1456 1472 1473 1467 1473 1472 1447 1449 1451 1455 1458 1462 1467 1472 1476 1481 1486 1489 1493 1495 1497 1499 1501 1503 1504 1506 1508 1510 1512 1514 1516 1518 1520 1522 1524 1527
1437 1447 1462 1459 1448 1441 1442 1443 1446 1452 1461 1466 1472 1470 1446 1449 1451 1453 1457 1462 1467 1472 1477 1481 1485 1489 1492 1495 1497 1499 1501 1503 1504 1506 1507 1509 1511 1512 1514 1516 1518 1520 1522 1524
1439 1445 1454 1460 1449 1441 1444 1443 1442 1449 1460 1463 1461 1459 1452 1452 1453 1455 1459 1464 1468 1473 1477 1481 1485 1488 1491 1494 1496 1499 1501 1502 1504 1505 1507 1508 1510 1511 1513 1514 1516 1518 1520 1522
1440 1447 1447 1443 1437 1436 1439 1440 1440 1445 1448 1454 1453 1451 1449 1449 1452 1456 1460 1464 1468 1473 1478 1481 1485 1487 1491 1493 1496 1498 1500 1501 1503 1505 1506 1507 1509 1510 1511 1513 1514 1516 1518 1520
1441 1447 1447 1447 1439 1436 1437 1435 1436 1438 1440 1443 1444 1447 1443 1446 1451 1455 1459 1463 1468 1472 1476 1481 1484 1487 1490 1493 1495 1497 1499 1500 1502 1503 1505 1506 1508 1509 1510 1512 1513 1515 1517 1519
1440 1450 1455 1454 1442 1440 1445 1434 1434 1434 1433 1437 1443 1443 1443 1447 1452 1456 1460 1463 1467 1471 1476 1480 1484 1487 1489 1492 1494 1496 1497 1499 1500 1502 1503 1505 1506 1508 1509 1511 1512 1514 1516 1518
1442 1446 1451 1453 1452 1463 1439 1423 1424 1429 1431 1431 1435 1438 1442 1447 1453 1459 1461 1464 1467 1471 1476 1480 1483 1486 1489 1491 1493 1495 1496 1498 1499 1501 1502 1503 1505 1507 1508 1509 1511 1513 1515 1517
1438 1445 1451 1452 1455 1450 1435 1426 1425 1431 1434 1432 1434 1439 1444 1449 1454 1460 1463 1465 1468 1472 1475 1479 1482 1485 1488 1490 1492 1493 1495 1497 1498 1499 1500 1502 1503 1505 1506 1508 1509 1511 1513 1515
1437 1442 1451 1453 1458 1456 1438 1426 1425 1430 1439 1435 1436 1440 1445 1449 1454 1461 1465 1467 1469 1472 1476 1479 1482 1484 1486 1488 1490 1492 1493 1495 1496 1498 1499 1500 1502 1504 1505 1506 1508 1510 1512 1514
1441 1445 1450 1453 1454 1444 1431 1428 1431 1446 1448 1441 1440 1442 1446 1451 1455 1462 1465 1469 1471 1474 1477 1479 1482 1484 1485 1487 1489 1490 1492 1493 1495 1496 1497 1498 1500 1502 1504 1505 1507 1509 1511 1513
1437 1443 1447 1449 1454 1451 1434 1432 1438 1446 1445 1445 1447 1449 1452 1456 1459 1463 1466 1470 1473 1476 1478 1480 1481 1483 1484 1486 1487 1488 1490 1492 1493 1495 1496 1497 1499 1501 1503 1504 1506 1509 1511 1513
1430 1434 1435 1440 1444 1442 1440 1442 1444 1445 1447 1449 1451 1454 1456 1459 1463 1465 1468 1472 1475 1477 1479 1480 1481 1482 1483 1484 1485 1486 1488 1489 1491 1492 1494 1496 1498 1500 1501 1503 1506 1508 1511 1513
1431 1432 1435 1438 1440 1441 1443 1445 1447 1448 1451 1452 1454 1456 1459 1462 1464 1466 1469 1473 1475 1477 1478 1479 1480 1481 1482 1483 1483 1485 1486 1487 1489 1490 1493 1495 1497 1499 1501 1504 1506 1508 1510 1512
1437 1438 1437 1439 1441 1443 1446 1448 1450 1452 1453 1455 1457 1458 1461 1463 1466 1468 1470 1473 1474 1476 1477 1478 1479 1480 1480 1481 1482 1483 1484 1485 1487 1489 1491 1494 1496 1498 1500 1503 1505 1508 1510 1513
1439 1440 1443 1444 1444 1445 1448 1451 1452 1453 1455 1457 1459 1460 1462 1464 1467 1469 1471 1473 1474 1475 1476 1477 1478 1478 1479 1480 1480 1481 1482 1484 1485 1487 1489 1492 1495 1497 1499 1502 1504 1508 1511 1513